Regional Weather Roundup
Issued by NWS

Home | Current Version | Previous Version | Graphics & Text | Print | Product List | Glossary Off
Versions: 1 2 3 4 5 6 7 8 9 10 11 12 13 14 15 16 17 18 19 20 21 22 23 24 25 26 27 28 29 30 31 32 33 34 35 36 37 38 39 40 41 42 43 44 45 46 47 48 49 50

000
ASUS43 KLSX 300210
RWRMO

WEATHER SUMMARY FOR MISSOURI
NATIONAL WEATHER SERVICE SPRINGFIELD MO
900 PM CDT SAT AUG 29 2015

NOTE: "FAIR" INDICATES FEW OR NO CLOUDS BELOW 12,000 FEET WITH NO
       SIGNIFICANT WEATHER AND/OR OBSTRUCTIONS TO VISIBILITY.
       CURRENT SKY AND/OR WEATHER CONDITIONS ARE NOT AVAILABLE FOR
       CHILLICOTHE AND FARMINGTON.

MOZ001>031-035>038-043-044-053-054-300300-
...NORTHERN AND WESTERN MISSOURI...

CITY           SKY/WX    TMP DP  RH WIND       PRES   REMARKS
KANSAS CTY INT MOCLDY    70  66  87 N7        30.03R
KANSAS C DTWN  MOCLDY    73  67  81 N5        30.01R
LEE`S SUMMIT   CLOUDY    73  68  84 N8        30.03R
ST JOSEPH      CLEAR     64  62  93 CALM      30.04R
CHILLICOTHE      N/A     71  69  93 CALM      30.03R
KIRKSVILLE     CLEAR     70  66  87 N6        30.03R

$$
MOZ066>068-077>081-088>096-101>105-300300-
...SOUTHWEST MISSOURI...

CITY           SKY/WX    TMP DP  RH WIND       PRES   REMARKS
SPRINGFIELD    CLOUDY    77  67  71 NE3       30.00R
JOPLIN         PTCLDY    74  70  87 N3        29.99R

$$
MOZ032>034-039>042-045>050-055>058-069>072-300300-
...CENTRAL MISSOURI...

CITY           SKY/WX    TMP DP  RH WIND       PRES   REMARKS
COLUMBIA       MOCLDY    75  70  84 NE5       30.01R
JEFFERSON CITY PTCLDY    74  69  85 W3        30.00R
ROLLA          CLOUDY    74  68  81 SE6       30.02R
SEDALIA        CLOUDY    76  70  82 CALM      30.01R
WHITEMAN AFB   MOCLDY    73  72  96 N2        29.99S
WARRENSBURG    MOCLDY    73  70  88 CALM      30.00S
OSAGE BEACH    MOCLDY    73  68  83 CALM      30.01R

$$
MOZ051-052-059>065-300300-
...EAST CENTRAL MISSOURI...

CITY           SKY/WX    TMP DP  RH WIND       PRES   REMARKS
ST LOUIS INTL  CLOUDY    80  66  62 S6        30.02R
SPIRIT OF STL  CLOUDY    77  70  79 S5        30.00R
ST CHARLES     PTCLDY    75  70  84 CALM      30.00R

$$
MOZ072>076-082>087-097>100-106>115-300300-
...SOUTH CENTRAL AND SOUTHEAST MISSOURI...

CITY           SKY/WX    TMP DP  RH WIND       PRES   REMARKS
CAPE GIRARDEAU CLOUDY    74  70  87 CALM      30.02R
FARMINGTON     MOCLDY    72  68  88 S3        30.06R
POPLAR BLUFF   CLOUDY    73  70  90 CALM      30.01R
WEST PLAINS    CLEAR     69  64  84 SE5       30.05R

$$



USA.gov is the U.S. government's official web portal to all federal, state and local government web resources and services.